Clermont County, Batavia, OH

10:55 AM EST on December 08, 2019 (GMT -0500)
Clermont County, Batavia

Weather History for KI69 - September, 2019

Change the Weather History Date:

Thursday, September 5, 2019

  Actual Average (KLUK) Record (KLUK)
Temperature  
Mean Temperature 66 °F -  
Max Temperature 75 °F 82 °F 98 °F (2007)
Min Temperature 58 °F 61 °F 46 °F (1974)
Cooling Degree Days 2    
Growing Degree Days 16 (Base 50)    
Moisture  
Dew Point 58 °F    
Average Humidity 75    
Maximum Humidity 97    
Minimum Humidity 49    
Precipitation  
Precipitation 0.04 in - - ()
Sea Level Pressure  
Sea Level Pressure 30.09 in    
Wind  
Wind Speed 3 mph (NNE)    
Max Wind Speed 9 mph    
Max Gust Speed -    
Visibility 10 miles    
Events      
Averages and records for this station are not official NWS values.
T = Trace of Precipitation, MM = Missing Value Source: NWS Daily Summary

Daily Weather History Graph

Daily Weather History Graph

Search for Another Location

Airport or City:

Astronomy

Sep. 05, 2019 Rise Set
Actual Time 7:08 AM EDT 8:01 PM EDT
Civil Twilight 6:41 AM EDT 8:28 PM EDT
Nautical Twilight 6:09 AM EDT 9:00 PM EDT
Astronomical Twilight 5:36 AM EDT 9:34 PM EDT
Moon 2:11 PM EDT (9/5) No Moon Set
Length of Visible Light 13h 46m
Length of Day
12h 52m
Waxing Crescent, 45% of the Moon is Illuminated
Sep 5
Waxing Crescent
Sep 5
First Quarter
Sep 14
Full
Sep 21
Last Quarter
Sep 28
New

Hourly Weather History & Observations

Time (EDT) Temp. Dew Point Humidity Pressure Visibility Wind Dir Wind Speed Gust Speed Precip Events Conditions
12:15 AM 66.0 °F 60.1 °F 81% 30.10 in 10.0 mi NNE 4.6 mph - N/A   Clear
12:38 AM 65.3 °F 59.9 °F 83% 30.10 in 10.0 mi NNE 3.5 mph - N/A   Clear
12:56 AM 64.6 °F 60.1 °F 85% 30.10 in 10.0 mi NNE 3.5 mph - N/A   Clear
1:16 AM 63.9 °F 59.9 °F 87% 30.10 in 10.0 mi Calm Calm - N/A   Clear
1:35 AM 63.7 °F 59.9 °F 87% 30.10 in 10.0 mi Calm Calm - N/A   Clear
1:55 AM 63.5 °F 59.9 °F 88% 30.10 in 10.0 mi NNE 3.5 mph - N/A   Clear
2:18 AM 63.0 °F 59.9 °F 90% 30.10 in 10.0 mi NNE 3.5 mph - N/A   Clear
2:36 AM 62.6 °F 59.9 °F 91% 30.09 in 10.0 mi Calm Calm - N/A   Clear
2:55 AM 62.2 °F 59.4 °F 90% 30.09 in 10.0 mi NE 3.5 mph - N/A   Clear
3:15 AM 61.9 °F 59.5 °F 92% 30.09 in 10.0 mi Calm Calm - N/A   Clear
3:35 AM 61.9 °F 59.5 °F 92% 30.09 in 10.0 mi NNE 3.5 mph - 0.01 in   Clear
3:58 AM 61.2 °F 59.4 °F 94% 30.09 in 10.0 mi NNE 3.5 mph - 0.01 in   Clear
4:16 AM 61.2 °F 59.4 °F 94% 30.10 in 10.0 mi Calm Calm - N/A   Clear
4:35 AM 61.2 °F 59.4 °F 94% 30.11 in 10.0 mi North 3.5 mph - N/A   Clear
4:55 AM 60.6 °F 59.0 °F 94% 30.10 in 10.0 mi Calm Calm - N/A   Clear
5:15 AM 60.3 °F 59.0 °F 96% 30.10 in 10.0 mi Calm Calm - N/A   Clear
5:38 AM 60.1 °F 58.8 °F 96% 30.10 in 10.0 mi Calm Calm - N/A   Clear
5:56 AM 59.9 °F 59.0 °F 97% 30.11 in 10.0 mi Calm Calm - N/A   Clear
6:15 AM 59.4 °F 58.3 °F 96% 30.11 in 10.0 mi NNE 3.5 mph - N/A   Clear
6:36 AM 59.4 °F 58.1 °F 96% 30.12 in 10.0 mi Calm Calm - N/A   Clear
6:55 AM 58.8 °F 57.7 °F 96% 30.12 in 10.0 mi Calm Calm - N/A   Clear
7:18 AM 58.8 °F 57.9 °F 97% 30.12 in 10.0 mi Calm Calm - N/A   Clear
7:36 AM 58.8 °F 57.7 °F 96% 30.12 in 10.0 mi NNE 3.5 mph - N/A   Scattered Clouds
7:55 AM 59.5 °F 58.1 °F 95% 30.12 in 10.0 mi Calm Calm - N/A   Clear
8:15 AM 59.9 °F 58.6 °F 96% 30.13 in 10.0 mi Calm Calm - N/A   Clear
8:35 AM 61.0 °F 59.0 °F 93% 30.13 in 7.0 mi Calm Calm - N/A   Clear
8:58 AM 62.2 °F 59.2 °F 90% 30.13 in 10.0 mi Calm Calm - N/A   Clear
9:16 AM 63.5 °F 59.5 °F 87% 30.14 in 10.0 mi NNE 4.6 mph - N/A   Clear
9:35 AM 64.6 °F 59.9 °F 85% 30.14 in 10.0 mi NNE 3.5 mph - N/A   Clear
9:55 AM 66.0 °F 59.5 °F 80% 30.14 in 10.0 mi NE 5.8 mph - N/A   Clear
10:20 AM 67.3 °F 59.2 °F 75% 30.14 in 10.0 mi NE 5.8 mph - 0.01 in   Clear
10:38 AM 68.4 °F 58.5 °F 71% 30.14 in 10.0 mi North 6.9 mph - 0.01 in   Clear
10:56 AM 69.3 °F 57.6 °F 66% 30.14 in 10.0 mi NE 6.9 mph - 0.01 in   Clear
11:15 AM 69.8 °F 57.7 °F 65% 30.13 in 10.0 mi NE 8.1 mph - N/A   Clear
11:35 AM 70.9 °F 56.8 °F 61% 30.13 in 10.0 mi NNE 8.1 mph - N/A   Clear
11:59 AM 71.1 °F 56.1 °F 59% 30.13 in 10.0 mi NNE 6.9 mph - N/A   Clear
12:17 PM 71.6 °F 55.9 °F 58% 30.12 in 10.0 mi ENE 4.6 mph - N/A   Clear
12:36 PM 72.1 °F 55.9 °F 57% 30.12 in 10.0 mi North 8.1 mph - N/A   Clear
12:55 PM 72.5 °F 56.5 °F 57% 30.12 in 10.0 mi NE 6.9 mph - N/A   Clear
1:15 PM 73.0 °F 57.0 °F 57% 30.11 in 10.0 mi NE 6.9 mph - N/A   Clear
1:39 PM 72.9 °F 56.8 °F 57% 30.11 in 10.0 mi North 5.8 mph - N/A   Clear
1:57 PM 72.9 °F 57.0 °F 57% 30.11 in 10.0 mi North 3.5 mph - N/A   Scattered Clouds
2:16 PM 74.3 °F 57.7 °F 56% 30.10 in 10.0 mi NE 4.6 mph - N/A   Clear
2:35 PM 74.7 °F 56.8 °F 54% 30.09 in 10.0 mi NNE 9.2 mph - N/A   Clear
2:55 PM 74.1 °F 55.6 °F 52% 30.09 in 10.0 mi ENE 6.9 mph - N/A   Clear
3:19 PM 75.0 °F 55.9 °F 51% 30.09 in 10.0 mi NE 6.9 mph - N/A   Clear
3:37 PM 75.0 °F 55.2 °F 50% 30.08 in 10.0 mi NE 5.8 mph - N/A   Clear
3:56 PM 75.9 °F 56.1 °F 50% 30.08 in 10.0 mi NE 5.8 mph - N/A   Clear
4:15 PM 75.4 °F 55.2 °F 49% 30.08 in 10.0 mi North 5.8 mph - N/A   Clear
4:35 PM 75.4 °F 55.8 °F 50% 30.07 in 10.0 mi NNE 9.2 mph - N/A   Clear
4:59 PM 75.4 °F 55.6 °F 50% 30.06 in 10.0 mi North 8.1 mph - 0.01 in   Clear
5:17 PM 75.7 °F 56.3 °F 51% 30.06 in 10.0 mi NE 4.6 mph - N/A   Clear
5:35 PM 75.6 °F 56.5 °F 51% 30.06 in 10.0 mi ENE 5.8 mph - N/A   Clear
5:55 PM 75.7 °F 56.7 °F 51% 30.06 in 10.0 mi NE 4.6 mph - N/A   Clear
6:15 PM 75.6 °F 56.3 °F 51% 30.06 in 10.0 mi NNE 3.5 mph - N/A   Clear
6:39 PM 75.2 °F 55.8 °F 51% 30.05 in 10.0 mi NNE 4.6 mph - N/A   Clear
6:57 PM 74.7 °F 56.5 °F 53% 30.06 in 10.0 mi NE 3.5 mph - N/A   Clear
7:15 PM 74.1 °F 57.6 °F 56% 30.05 in 10.0 mi Calm Calm - N/A   Clear
7:35 PM 73.2 °F 57.6 °F 58% 30.05 in 10.0 mi Calm Calm - N/A   Clear
7:55 PM 71.2 °F 58.5 °F 64% 30.06 in 10.0 mi Calm Calm - N/A   Clear
8:19 PM 70.2 °F 58.3 °F 66% 30.06 in 10.0 mi Calm Calm - N/A   Clear
8:37 PM 68.7 °F 58.6 °F 70% 30.05 in 10.0 mi Calm Calm - N/A   Clear
8:55 PM 66.9 °F 59.4 °F 77% 30.06 in 10.0 mi Calm Calm - N/A   Clear
9:16 PM 66.6 °F 59.7 °F 79% 30.05 in 10.0 mi Calm Calm - N/A   Clear
9:35 PM 66.2 °F 59.7 °F 80% 30.06 in 10.0 mi Calm Calm - N/A   Clear
9:59 PM 64.9 °F 59.5 °F 83% 30.06 in 10.0 mi Calm Calm - N/A   Clear
10:17 PM 63.7 °F 59.2 °F 85% 30.06 in 10.0 mi Calm Calm - N/A   Clear
10:35 PM 63.5 °F 59.2 °F 86% 30.06 in 10.0 mi Calm Calm - N/A   Clear
10:55 PM 62.2 °F 59.0 °F 89% 30.06 in 10.0 mi Calm Calm - N/A   Clear
11:15 PM 61.2 °F 58.8 °F 92% 30.06 in 10.0 mi Calm Calm - 0.01 in   Clear
11:38 PM 62.8 °F 58.6 °F 86% 30.06 in 10.0 mi Calm Calm - 0.01 in   Clear
11:57 PM 62.2 °F 57.7 °F 85% 30.04 in 10.0 mi Calm Calm - 0.01 in   Clear